Voltar ao catálogo

STARLINK-37534

AtivoComunicaçõesSSO
NORAD 68897·PAYLOAD·🇺🇸 United States

Lançado Apr 30, 2026 de Vandenberg Space Force Base

Loading…

Próximas Passagens (próximas 24 horas)

TLE

AtualizadoSource: CelesTrak SupGP

Época: Sep 15, 2026, 03:20 UTC

1 68897C 26097C   26258.13937500 -.00042108  00000+0 -13071-2 0  2581
2 68897  97.2856  92.3980 0001713  89.3562 251.4645 15.33460994    15

Acompanhe STARLINK-37534 em tempo real com AllMySat

Download on the App Store